Tracking 23114 objects as of 14-May-2021
HD Live streaming from Space Station
objects crossing your sky now

CZ-3C R/B


CZ-3C R/B is no longer on orbit


NORAD ID: 40284
Int'l Code: 2014-065B
Perigee: N/A
Apogee: N/A
Inclination: N/A
Period: N/A
Semi major axis: N/A
RCS: N/A
Launch date: October 23, 2014
Source: People's Republic of China (PRC)
Launch site: Xichang Space Center, China (XSC)
Decay date: 2015-10-06

Note: This is a ROCKET BODY
aabbcc
Your satellite tracking list
Your tracking list is empty




NASA's NSSDC Master Catalog

Two Line Element Set (TLE):
1 40284U 14065B   14296.61771037 -.00016976 -40384-4  00000+0 0  9991
2 40284 030.4737 296.6387 9755090 146.2479 349.5224 00.09145111 14964
Source of the keplerian elements: AFSPC